Terminal Aerodrome Forecast
Issued by NWS

Home | Current Version | Previous Version | Graphics & Text | Print | Product List | Glossary On
Versions: 1 2 3 4 5 6 7 8 9 10 11 12 13 14 15 16 17 18 19 20
642
FTUS43 KTOP 241320 AAB
TAFMHK
TAF AMD
KMHK 241320Z 2413/2512 31012KT 6SM BR BKN008 OVC015
      TEMPO 2413/2415 3SM BR
     FM241500 32016G24KT P6SM VCSH BKN011
     FM242100 33017G27KT P6SM OVC015
     FM250000 33011KT P6SM OVC035=

USA.gov is the U.S. government's official web portal to all federal, state and local government web resources and services.